Terug naar catalogus

ARIANE 5 R/B

ActiefHEO
NORAD 25990·ROCKET BODY·🇫🇷 France

Gelanceerd Dec 10, 1999 vanaf Guiana Space Centre

Loading…

Volgende Passages (komende 24 uur)

TLE

VersSource: Space-Track

Epoch: Sep 13, 2026, 19:50 UTC

1 25990U 99066B   26256.82702195 -.00000081  00000-0  00000-0 0  9990
2 25990  71.5036 302.9419 5895134 111.7174   0.3007  0.55304702 25849

Volg ARIANE 5 R/B in realtime met AllMySat

Download on the App Store